Time,TemperatureF,DewpointF,PressureIn,WindDirection,WindDirectionDegrees,WindSpeedMPH,WindSpeedGustMPH,Humidity,HourlyPrecipIn,Conditions,Clouds,dailyrainin,SolarRadiationWatts/m^2,SoftwareType,DateUTC
2013-02-18 00:02:00,44.1,38.3,30.15,WSW,240,0.0,0.0,80,0.00,,,0.00,0.0,meteohub,2013-02-18 08:02:00,
2013-02-18 00:07:00,43.7,38.3,30.15,WSW,240,0.0,0.0,81,0.00,,,0.00,0.0,meteohub,2013-02-18 08:07:00,
2013-02-18 00:12:00,43.7,38.5,30.15,WSW,240,0.0,1.0,82,0.00,,,0.00,0.0,meteohub,2013-02-18 08:12:00,
2013-02-18 00:17:00,43.5,38.5,30.14,NW,310,0.0,1.0,82,0.00,,,0.00,0.0,meteohub,2013-02-18 08:17:00,
2013-02-18 00:22:00,43.9,39.0,30.15,WNW,286,2.0,2.0,83,0.00,,,0.00,0.0,meteohub,2013-02-18 08:22:00,
2013-02-18 00:27:00,44.4,39.2,30.15,WNW,286,0.0,3.0,82,0.00,,,0.00,0.0,meteohub,2013-02-18 08:27:00,
2013-02-18 00:32:00,44.8,39.4,30.15,WNW,286,0.0,3.0,81,0.00,,,0.00,0.0,meteohub,2013-02-18 08:32:00,
2013-02-18 00:37:00,45.0,39.6,30.15,West,271,0.0,4.0,81,0.00,,,0.00,0.0,meteohub,2013-02-18 08:37:00,
2013-02-18 00:42:00,45.3,39.9,30.15,WNW,292,3.0,6.0,81,0.00,,,0.00,0.0,meteohub,2013-02-18 08:42:00,
2013-02-18 00:47:00,45.9,40.1,30.15,WNW,294,5.0,6.0,80,0.00,,,0.00,0.0,meteohub,2013-02-18 08:47:00,
2013-02-18 00:52:00,46.2,40.5,30.15,WSW,248,0.0,7.0,80,0.00,,,0.00,0.0,meteohub,2013-02-18 08:52:00,
2013-02-18 00:57:00,46.8,40.6,30.15,WSW,238,1.0,7.0,79,0.00,,,0.00,0.0,meteohub,2013-02-18 08:57:00,
2013-02-18 01:02:00,46.8,40.6,30.15,WSW,242,1.0,7.0,79,0.00,,,0.00,0.0,meteohub,2013-02-18 09:02:00,
2013-02-18 01:07:00,46.8,41.0,30.15,West,274,0.0,3.0,80,0.00,,,0.00,0.0,meteohub,2013-02-18 09:07:00,
2013-02-18 01:12:00,46.2,40.5,30.15,WNW,297,0.0,4.0,80,0.00,,,0.00,0.0,meteohub,2013-02-18 09:12:00,
2013-02-18 01:17:00,46.0,40.8,30.15,WNW,297,0.0,4.0,82,0.00,,,0.00,0.0,meteohub,2013-02-18 09:17:00,
2013-02-18 01:22:00,45.7,40.8,30.15,WNW,302,1.0,4.0,83,0.00,,,0.00,0.0,meteohub,2013-02-18 09:22:00,
2013-02-18 01:27:00,45.7,40.5,30.15,West,271,0.0,4.0,82,0.00,,,0.00,0.0,meteohub,2013-02-18 09:27:00,
2013-02-18 01:32:00,45.3,40.8,30.15,West,271,0.0,4.0,84,0.00,,,0.00,0.0,meteohub,2013-02-18 09:32:00,
2013-02-18 01:37:00,45.1,40.8,30.15,NW,326,3.0,4.0,85,0.00,,,0.00,0.0,meteohub,2013-02-18 09:37:00,
2013-02-18 01:42:00,45.3,41.0,30.15,NW,325,0.0,4.0,85,0.00,,,0.00,0.0,meteohub,2013-02-18 09:42:00,
2013-02-18 01:47:00,45.3,41.0,30.15,North,5,0.0,4.0,85,0.00,,,0.00,0.0,meteohub,2013-02-18 09:47:00,
2013-02-18 01:52:00,45.1,40.6,30.15,North,5,0.0,4.0,84,0.00,,,0.00,0.0,meteohub,2013-02-18 09:52:00,
2013-02-18 01:57:00,45.1,40.6,30.15,North,5,0.0,2.0,84,0.00,,,0.00,0.0,meteohub,2013-02-18 09:57:00,
2013-02-18 02:02:00,45.3,40.8,30.15,North,5,0.0,2.0,84,0.00,,,0.00,0.0,meteohub,2013-02-18 10:02:00,
2013-02-18 02:07:00,45.1,40.6,30.15,North,5,0.0,0.0,84,0.00,,,0.00,0.0,meteohub,2013-02-18 10:07:00,
2013-02-18 02:12:00,45.0,40.5,30.14,North,5,0.0,1.0,84,0.00,,,0.00,0.0,meteohub,2013-02-18 10:12:00,
2013-02-18 02:17:00,45.0,40.6,30.14,North,355,1.0,1.0,85,0.00,,,0.00,0.0,meteohub,2013-02-18 10:17:00,
2013-02-18 02:22:00,45.0,40.6,30.15,NW,311,0.0,1.0,85,0.00,,,0.00,0.0,meteohub,2013-02-18 10:22:00,
2013-02-18 02:27:00,44.6,40.6,30.14,WNW,300,0.0,2.0,86,0.00,,,0.00,0.0,meteohub,2013-02-18 10:27:00,
2013-02-18 02:32:00,44.4,40.8,30.14,WNW,298,2.0,2.0,87,0.00,,,0.00,0.0,meteohub,2013-02-18 10:32:00,
2013-02-18 02:37:00,44.4,41.2,30.14,West,276,3.0,3.0,88,0.00,,,0.00,0.0,meteohub,2013-02-18 10:37:00,
2013-02-18 02:42:00,44.4,41.2,30.14,West,262,1.0,4.0,88,0.00,,,0.00,0.0,meteohub,2013-02-18 10:42:00,
2013-02-18 02:47:00,44.4,41.4,30.14,WNW,282,1.0,6.0,89,0.00,,,0.00,0.0,meteohub,2013-02-18 10:47:00,
2013-02-18 02:52:00,44.4,41.4,30.14,West,263,5.0,6.0,89,0.00,,,0.00,0.0,meteohub,2013-02-18 10:52:00,
2013-02-18 02:57:00,44.6,41.5,30.14,West,279,3.0,5.0,89,0.00,,,0.00,0.0,meteohub,2013-02-18 10:57:00,
2013-02-18 03:02:00,44.6,41.9,30.14,WSW,254,0.0,5.0,90,0.00,,,0.00,0.0,meteohub,2013-02-18 11:02:00,
2013-02-18 03:07:00,44.4,41.4,30.14,West,265,2.0,5.0,89,0.00,,,0.00,0.0,meteohub,2013-02-18 11:07:00,
2013-02-18 03:17:00,44.4,41.7,30.13,NW,309,0.0,5.0,90,0.00,,,0.00,0.0,meteohub,2013-02-18 11:17:00,
2013-02-18 03:22:00,44.4,41.9,30.13,WNW,297,7.0,7.0,91,0.00,,,0.00,0.0,meteohub,2013-02-18 11:22:00,
2013-02-18 03:27:00,44.4,41.9,30.13,WNW,282,6.0,8.0,91,0.00,,,0.00,0.0,meteohub,2013-02-18 11:27:00,
2013-02-18 03:32:00,44.4,41.9,30.13,West,277,6.0,8.0,91,0.00,,,0.00,0.0,meteohub,2013-02-18 11:32:00,
2013-02-18 03:37:00,44.4,41.9,30.13,WNW,284,7.0,13.0,91,0.00,,,0.00,0.0,meteohub,2013-02-18 11:37:00,
2013-02-18 03:42:00,44.4,41.9,30.13,West,269,5.0,13.0,91,0.00,,,0.00,0.0,meteohub,2013-02-18 11:42:00,
2013-02-18 03:47:00,44.4,41.9,30.13,SW,228,2.0,13.0,91,0.00,,,0.00,0.0,meteohub,2013-02-18 11:47:00,
2013-02-18 03:52:00,44.4,41.9,30.13,SW,224,2.0,9.0,91,0.00,,,0.00,0.0,meteohub,2013-02-18 11:52:00,
2013-02-18 03:57:00,44.4,41.9,30.13,WSW,242,2.0,9.0,91,0.00,,,0.00,0.0,meteohub,2013-02-18 11:57:00,
2013-02-18 04:07:00,44.4,41.9,30.12,WSW,254,0.0,5.0,91,0.00,,,0.00,0.0,meteohub,2013-02-18 12:07:00,
2013-02-18 04:12:00,44.6,42.1,30.12,WNW,286,2.0,7.0,91,0.00,,,0.00,0.0,meteohub,2013-02-18 12:12:00,
2013-02-18 04:17:00,44.8,42.3,30.13,WNW,294,2.0,7.0,91,0.00,,,0.00,0.0,meteohub,2013-02-18 12:17:00,
2013-02-18 04:22:00,44.8,42.3,30.13,SSW,199,1.0,7.0,91,0.00,,,0.00,0.0,meteohub,2013-02-18 12:22:00,
2013-02-18 04:27:00,44.8,42.3,30.13,NW,317,1.0,8.0,91,0.00,,,0.00,0.0,meteohub,2013-02-18 12:27:00,
2013-02-18 04:37:00,45.1,42.6,30.13,South,183,1.0,8.0,91,0.00,,,0.00,0.0,meteohub,2013-02-18 12:37:00,
2013-02-18 04:42:00,45.1,42.6,30.13,West,271,0.0,8.0,91,0.00,,,0.00,0.0,meteohub,2013-02-18 12:42:00,
2013-02-18 04:47:00,45.1,42.4,30.13,West,269,4.0,8.0,90,0.00,,,0.00,0.0,meteohub,2013-02-18 12:47:00,
2013-02-18 04:52:00,45.3,42.6,30.13,SW,218,3.0,10.0,90,0.00,,,0.00,0.0,meteohub,2013-02-18 12:52:00,
2013-02-18 04:57:00,45.3,42.6,30.13,West,274,2.0,10.0,90,0.00,,,0.00,0.0,meteohub,2013-02-18 12:57:00,
2013-02-18 05:02:00,45.3,42.3,30.13,West,267,1.0,10.0,89,0.00,,,0.00,0.0,meteohub,2013-02-18 13:02:00,
2013-02-18 05:07:00,45.5,42.4,30.13,SW,229,8.0,10.0,89,0.00,,,0.00,0.0,meteohub,2013-02-18 13:07:00,
2013-02-18 05:12:00,45.5,42.4,30.13,West,280,4.0,10.0,89,0.00,,,0.00,0.0,meteohub,2013-02-18 13:12:00,
2013-02-18 05:17:00,45.5,42.4,30.13,WSW,248,4.0,10.0,89,0.00,,,0.00,0.0,meteohub,2013-02-18 13:17:00,
2013-02-18 05:22:00,45.5,42.4,30.13,WSW,252,0.0,12.0,89,0.00,,,0.00,0.0,meteohub,2013-02-18 13:22:00,
2013-02-18 05:27:00,45.7,42.3,30.14,West,271,3.0,12.0,88,0.00,,,0.00,0.0,meteohub,2013-02-18 13:27:00,
2013-02-18 05:32:00,45.7,42.6,30.14,SW,226,6.0,10.0,89,0.00,,,0.00,0.0,meteohub,2013-02-18 13:32:00,
2013-02-18 05:37:00,45.7,42.6,30.14,WNW,292,5.0,10.0,89,0.00,,,0.00,0.0,meteohub,2013-02-18 13:37:00,
2013-02-18 05:42:00,45.7,42.6,30.14,West,281,4.0,10.0,89,0.00,,,0.00,0.0,meteohub,2013-02-18 13:42:00,
2013-02-18 05:47:00,45.5,42.1,30.14,WNW,293,3.0,10.0,88,0.00,,,0.00,0.0,meteohub,2013-02-18 13:47:00,
2013-02-18 05:52:00,45.3,41.9,30.13,WNW,303,3.0,10.0,88,0.00,,,0.00,0.0,meteohub,2013-02-18 13:52:00,
2013-02-18 05:57:00,45.3,41.9,30.13,WNW,300,6.0,9.0,88,0.00,,,0.00,0.0,meteohub,2013-02-18 13:57:00,
2013-02-18 06:02:00,45.3,41.9,30.13,West,278,3.0,9.0,88,0.00,,,0.00,0.0,meteohub,2013-02-18 14:02:00,
2013-02-18 06:07:00,45.3,41.7,30.14,WSW,258,2.0,9.0,87,0.00,,,0.00,0.0,meteohub,2013-02-18 14:07:00,
2013-02-18 06:12:00,45.3,41.7,30.14,WNW,294,3.0,9.0,87,0.00,,,0.00,0.0,meteohub,2013-02-18 14:12:00,
2013-02-18 06:17:00,45.3,41.7,30.14,WNW,288,4.0,9.0,87,0.00,,,0.00,0.0,meteohub,2013-02-18 14:17:00,
2013-02-18 06:22:00,45.3,41.7,30.14,West,266,3.0,9.0,87,0.00,,,0.00,0.0,meteohub,2013-02-18 14:22:00,
2013-02-18 06:27:00,45.3,41.7,30.14,WNW,284,2.0,11.0,87,0.00,,,0.00,0.0,meteohub,2013-02-18 14:27:00,
2013-02-18 06:32:00,45.3,41.7,30.14,WSW,250,3.0,14.0,87,0.00,,,0.00,0.0,meteohub,2013-02-18 14:32:00,
2013-02-18 06:37:00,45.3,41.7,30.14,WSW,254,4.0,14.0,87,0.00,,,0.00,0.0,meteohub,2013-02-18 14:37:00,
2013-02-18 06:42:00,45.3,41.7,30.14,SW,229,6.0,9.0,87,0.00,,,0.00,0.0,meteohub,2013-02-18 14:42:00,
2013-02-18 06:47:00,45.3,41.7,30.14,WSW,257,3.0,9.0,87,0.00,,,0.00,0.0,meteohub,2013-02-18 14:47:00,
2013-02-18 06:52:00,45.5,41.9,30.14,SW,229,2.0,9.0,87,0.00,,,0.00,0.0,meteohub,2013-02-18 14:52:00,
2013-02-18 06:57:00,45.5,41.9,30.14,West,267,4.0,9.0,87,0.00,,,0.00,0.0,meteohub,2013-02-18 14:57:00,
2013-02-18 07:02:00,45.5,41.5,30.14,WSW,252,2.0,9.0,86,0.00,,,0.00,0.0,meteohub,2013-02-18 15:02:00,
2013-02-18 07:12:00,45.5,41.5,30.14,West,265,2.0,10.0,86,0.00,,,0.00,7.0,meteohub,2013-02-18 15:12:00,
2013-02-18 07:17:00,45.7,41.4,30.14,West,279,3.0,10.0,85,0.00,,,0.00,7.0,meteohub,2013-02-18 15:17:00,
2013-02-18 07:22:00,45.7,41.4,30.14,WNW,284,3.0,10.0,85,0.00,,,0.00,14.0,meteohub,2013-02-18 15:22:00,
2013-02-18 07:32:00,45.7,41.4,30.15,SW,230,1.0,11.0,85,0.00,,,0.00,18.0,meteohub,2013-02-18 15:32:00,
2013-02-18 07:37:00,45.7,41.4,30.15,WSW,244,3.0,11.0,85,0.00,,,0.00,18.0,meteohub,2013-02-18 15:37:00,
2013-02-18 07:42:00,45.9,41.5,30.15,West,268,4.0,10.0,85,0.00,,,0.00,25.0,meteohub,2013-02-18 15:42:00,
2013-02-18 07:47:00,45.9,41.5,30.15,WSW,240,3.0,6.0,85,0.00,,,0.00,33.0,meteohub,2013-02-18 15:47:00,
2013-02-18 07:52:00,45.9,41.4,30.15,West,261,3.0,8.0,84,0.00,,,0.00,40.0,meteohub,2013-02-18 15:52:00,
2013-02-18 07:57:00,46.0,41.5,30.15,WNW,286,2.0,8.0,84,0.00,,,0.00,56.0,meteohub,2013-02-18 15:57:00,
2013-02-18 08:02:00,46.0,41.7,30.16,West,266,4.0,10.0,85,0.00,,,0.00,56.0,meteohub,2013-02-18 16:02:00,
2013-02-18 08:07:00,46.2,41.7,30.15,West,266,1.0,10.0,84,0.00,,,0.00,74.0,meteohub,2013-02-18 16:07:00,
2013-02-18 08:12:00,46.4,41.9,30.15,WSW,250,5.0,7.0,84,0.00,,,0.00,74.0,meteohub,2013-02-18 16:12:00,
2013-02-18 08:17:00,46.4,41.5,30.15,West,269,5.0,7.0,83,0.00,,,0.00,62.0,meteohub,2013-02-18 16:17:00,
2013-02-18 08:22:00,46.4,41.5,30.16,WNW,288,2.0,8.0,83,0.00,,,0.00,51.0,meteohub,2013-02-18 16:22:00,
2013-02-18 08:27:00,46.2,41.4,30.16,SW,216,6.0,8.0,83,0.00,,,0.00,51.0,meteohub,2013-02-18 16:27:00,
2013-02-18 08:32:00,46.2,41.4,30.16,WSW,251,5.0,10.0,83,0.00,,,0.00,67.0,meteohub,2013-02-18 16:32:00,
2013-02-18 08:37:00,46.2,41.0,30.16,WSW,256,5.0,13.0,82,0.00,,,0.00,83.0,meteohub,2013-02-18 16:37:00,
2013-02-18 08:42:00,46.4,41.2,30.17,West,267,5.0,13.0,82,0.00,,,0.00,86.0,meteohub,2013-02-18 16:42:00,
2013-02-18 08:47:00,46.6,41.0,30.16,WNW,290,2.0,16.0,81,0.00,,,0.00,111.0,meteohub,2013-02-18 16:47:00,
2013-02-18 08:52:00,46.6,41.0,30.17,SW,229,8.0,16.0,81,0.00,,,0.00,116.0,meteohub,2013-02-18 16:52:00,
2013-02-18 08:57:00,46.8,41.2,30.17,West,265,7.0,16.0,81,0.00,,,0.00,116.0,meteohub,2013-02-18 16:57:00,
2013-02-18 09:02:00,46.8,41.0,30.16,West,273,5.0,14.0,80,0.00,,,0.00,100.0,meteohub,2013-02-18 17:02:00,
2013-02-18 09:07:00,46.9,41.4,30.16,WSW,252,11.0,11.0,81,0.00,,,0.00,102.0,meteohub,2013-02-18 17:07:00,
2013-02-18 09:12:00,46.9,41.2,30.17,West,277,6.0,11.0,80,0.00,,,0.00,123.0,meteohub,2013-02-18 17:12:00,
2013-02-18 09:17:00,47.1,41.0,30.17,SW,232,9.0,13.0,79,0.00,,,0.00,134.0,meteohub,2013-02-18 17:17:00,
2013-02-18 09:22:00,47.1,41.4,30.17,West,275,5.0,13.0,80,0.00,,,0.00,160.0,meteohub,2013-02-18 17:22:00,
2013-02-18 09:32:00,47.1,41.0,30.17,WNW,292,9.0,16.0,79,0.00,,,0.00,174.0,meteohub,2013-02-18 17:32:00,
2013-02-18 09:37:00,47.7,41.7,30.17,West,263,9.0,16.0,80,0.00,,,0.00,171.0,meteohub,2013-02-18 17:37:00,
2013-02-18 09:42:00,47.7,41.5,30.16,WNW,302,4.0,16.0,79,0.00,,,0.00,114.0,meteohub,2013-02-18 17:42:00,
2013-02-18 09:47:00,47.7,41.5,30.16,West,269,10.0,12.0,79,0.00,,,0.00,151.0,meteohub,2013-02-18 17:47:00,
2013-02-18 09:57:00,47.8,41.7,30.16,WNW,293,7.0,12.0,79,0.00,,,0.00,183.0,meteohub,2013-02-18 17:57:00,
2013-02-18 10:02:00,47.8,41.4,30.16,West,265,10.0,13.0,78,0.00,,,0.00,165.0,meteohub,2013-02-18 18:02:00,
2013-02-18 10:07:00,47.7,41.2,30.17,West,263,10.0,13.0,78,0.00,,,0.00,206.0,meteohub,2013-02-18 18:07:00,
2013-02-18 10:17:00,47.8,41.7,30.17,West,275,4.0,17.0,79,0.00,,,0.00,169.0,meteohub,2013-02-18 18:17:00,
2013-02-18 10:22:00,47.7,41.5,30.17,WSW,244,8.0,15.0,79,0.00,,,0.00,190.0,meteohub,2013-02-18 18:22:00,
2013-02-18 10:32:00,47.7,41.2,30.17,WSW,237,9.0,14.0,78,0.00,,,0.00,100.0,meteohub,2013-02-18 18:32:00,
2013-02-18 10:37:00,47.5,41.0,30.17,West,279,5.0,14.0,78,0.00,,,0.00,111.0,meteohub,2013-02-18 18:37:00,
2013-02-18 10:42:00,47.5,41.0,30.17,WSW,254,5.0,13.0,78,0.00,,,0.00,114.0,meteohub,2013-02-18 18:42:00,
2013-02-18 10:47:00,47.7,40.8,30.17,WSW,251,10.0,13.0,77,0.00,,,0.00,207.0,meteohub,2013-02-18 18:47:00,
2013-02-18 10:57:00,47.5,40.6,30.17,WSW,252,6.0,15.0,77,0.00,,,0.00,113.0,meteohub,2013-02-18 18:57:00,
2013-02-18 11:02:00,47.7,41.2,30.17,West,266,4.0,15.0,78,0.00,,,0.00,113.0,meteohub,2013-02-18 19:02:00,
2013-02-18 11:07:00,47.7,40.8,30.17,West,275,10.0,13.0,77,0.00,,,0.00,158.0,meteohub,2013-02-18 19:07:00,
2013-02-18 11:12:00,47.8,41.0,30.17,NW,317,5.0,11.0,77,0.00,,,0.00,274.0,meteohub,2013-02-18 19:12:00,
2013-02-18 11:17:00,48.7,41.5,30.17,West,265,8.0,12.0,76,0.00,,,0.00,397.0,meteohub,2013-02-18 19:17:00,
2013-02-18 11:27:00,48.9,41.4,30.17,West,276,7.0,13.0,75,0.00,,,0.00,207.0,meteohub,2013-02-18 19:27:00,
2013-02-18 11:32:00,48.7,41.2,30.17,West,270,7.0,14.0,75,0.00,,,0.00,137.0,meteohub,2013-02-18 19:32:00,
2013-02-18 11:42:00,48.9,41.4,30.16,West,278,6.0,15.0,75,0.00,,,0.00,308.0,meteohub,2013-02-18 19:42:00,
2013-02-18 11:47:00,49.3,41.4,30.16,West,267,8.0,15.0,74,0.00,,,0.00,227.0,meteohub,2013-02-18 19:47:00,
2013-02-18 11:52:00,49.1,40.8,30.16,West,278,8.0,15.0,73,0.00,,,0.00,181.0,meteohub,2013-02-18 19:52:00,
2013-02-18 12:02:00,49.3,41.0,30.16,NW,306,5.0,15.0,73,0.00,,,0.00,160.0,meteohub,2013-02-18 20:02:00,
2013-02-18 12:07:00,48.9,40.6,30.16,WSW,254,6.0,15.0,73,0.00,,,0.00,130.0,meteohub,2013-02-18 20:07:00,
2013-02-18 12:17:00,48.6,39.9,30.15,West,270,6.0,14.0,72,0.00,,,0.00,153.0,meteohub,2013-02-18 20:17:00,
2013-02-18 12:22:00,48.7,40.8,30.15,SSW,213,8.0,15.0,74,0.00,,,0.00,135.0,meteohub,2013-02-18 20:22:00,
2013-02-18 12:32:00,48.0,40.5,30.15,West,262,7.0,15.0,75,0.00,,,0.00,105.0,meteohub,2013-02-18 20:32:00,
2013-02-18 12:37:00,47.8,40.3,30.15,WSW,242,8.0,15.0,75,0.00,,,0.00,132.0,meteohub,2013-02-18 20:37:00,
2013-02-18 12:42:00,47.8,40.3,30.14,WSW,257,12.0,16.0,75,0.00,,,0.00,183.0,meteohub,2013-02-18 20:42:00,
2013-02-18 12:47:00,48.2,40.3,30.14,WNW,292,8.0,16.0,74,0.00,,,0.00,285.0,meteohub,2013-02-18 20:47:00,
2013-02-18 12:52:00,48.7,40.5,30.14,West,272,9.0,16.0,73,0.00,,,0.00,299.0,meteohub,2013-02-18 20:52:00,
2013-02-18 12:57:00,49.6,40.6,30.14,West,279,7.0,13.0,71,0.00,,,0.00,197.0,meteohub,2013-02-18 20:57:00,
2013-02-18 13:02:00,49.5,40.8,30.13,WSW,248,5.0,12.0,72,0.00,,,0.00,148.0,meteohub,2013-02-18 21:02:00,
2013-02-18 13:07:00,48.9,40.6,30.13,West,277,9.0,12.0,73,0.00,,,0.00,137.0,meteohub,2013-02-18 21:07:00,
2013-02-18 13:12:00,48.6,41.0,30.13,West,270,4.0,13.0,75,0.00,,,0.00,134.0,meteohub,2013-02-18 21:12:00,
2013-02-18 13:17:00,48.6,41.7,30.13,West,279,5.0,13.0,77,0.00,,,0.00,176.0,meteohub,2013-02-18 21:17:00,
2013-02-18 13:22:00,48.7,41.2,30.12,West,267,7.0,13.0,75,0.00,,,0.00,190.0,meteohub,2013-02-18 21:22:00,
2013-02-18 13:27:00,48.9,41.4,30.12,WNW,282,4.0,12.0,75,0.00,,,0.00,197.0,meteohub,2013-02-18 21:27:00,
2013-02-18 13:32:00,49.1,41.2,30.12,WNW,287,3.0,12.0,74,0.00,,,0.00,271.0,meteohub,2013-02-18 21:32:00,
2013-02-18 13:37:00,49.1,40.5,30.11,SW,228,7.0,16.0,72,0.00,,,0.00,216.0,meteohub,2013-02-18 21:37:00,
2013-02-18 13:42:00,49.3,40.6,30.12,West,264,7.0,16.0,72,0.00,,,0.00,197.0,meteohub,2013-02-18 21:42:00,
2013-02-18 13:47:00,49.3,41.0,30.11,West,272,7.0,16.0,73,0.00,,,0.00,225.0,meteohub,2013-02-18 21:47:00,
2013-02-18 13:57:00,49.5,40.5,30.11,SW,225,8.0,15.0,71,0.00,,,0.00,341.0,meteohub,2013-02-18 21:57:00,
2013-02-18 14:02:00,49.5,40.1,30.11,West,273,7.0,15.0,70,0.00,,,0.00,334.0,meteohub,2013-02-18 22:02:00,
2013-02-18 14:07:00,50.2,40.5,30.11,WSW,256,6.0,19.0,69,0.00,,,0.00,232.0,meteohub,2013-02-18 22:07:00,
2013-02-18 14:17:00,49.6,39.6,30.11,WSW,251,11.0,14.0,68,0.00,,,0.00,223.0,meteohub,2013-02-18 22:17:00,
2013-02-18 14:27:00,49.3,39.6,30.11,WSW,249,14.0,19.0,69,0.00,,,0.00,207.0,meteohub,2013-02-18 22:27:00,
2013-02-18 14:32:00,48.9,39.2,30.11,WSW,254,8.0,19.0,69,0.00,,,0.00,211.0,meteohub,2013-02-18 22:32:00,
2013-02-18 14:37:00,49.3,39.6,30.11,WNW,291,4.0,17.0,69,0.00,,,0.00,169.0,meteohub,2013-02-18 22:37:00,
2013-02-18 14:42:00,49.1,39.7,30.11,West,261,11.0,17.0,70,0.00,,,0.00,185.0,meteohub,2013-02-18 22:42:00,
2013-02-18 14:52:00,48.9,39.2,30.11,West,270,7.0,15.0,69,0.00,,,0.00,114.0,meteohub,2013-02-18 22:52:00,
2013-02-18 14:57:00,48.7,38.7,30.12,West,273,8.0,17.0,68,0.00,,,0.00,98.0,meteohub,2013-02-18 22:57:00,
2013-02-18 15:02:00,48.7,39.0,30.11,West,277,11.0,17.0,69,0.00,,,0.00,111.0,meteohub,2013-02-18 23:02:00,
2013-02-18 15:12:00,48.6,39.9,30.11,WNW,284,7.0,17.0,72,0.00,,,0.00,114.0,meteohub,2013-02-18 23:12:00,
2013-02-18 15:22:00,48.0,38.7,30.12,WSW,250,6.0,17.0,70,0.00,,,0.00,158.0,meteohub,2013-02-18 23:22:00,
2013-02-18 15:32:00,50.5,40.5,30.11,West,261,10.0,16.0,68,0.00,,,0.00,526.0,meteohub,2013-02-18 23:32:00,
2013-02-18 15:37:00,49.6,38.7,30.11,West,278,6.0,16.0,66,0.00,,,0.00,93.0,meteohub,2013-02-18 23:37:00,
2013-02-18 15:42:00,48.7,38.7,30.11,West,261,6.0,16.0,68,0.00,,,0.00,81.0,meteohub,2013-02-18 23:42:00,
2013-02-18 15:47:00,48.6,38.8,30.11,WSW,246,8.0,16.0,69,0.00,,,0.00,44.0,meteohub,2013-02-18 23:47:00,
2013-02-18 15:58:00,47.7,38.7,30.11,WSW,250,8.0,18.0,71,0.00,,,0.00,69.0,meteohub,2013-02-18 23:58:00,
2013-02-18 16:07:00,49.6,39.6,30.11,SW,229,6.0,18.0,68,0.00,,,0.00,195.0,meteohub,2013-02-19 00:07:00,
2013-02-18 16:17:00,49.1,39.4,30.10,West,261,6.0,13.0,69,0.00,,,0.00,125.0,meteohub,2013-02-19 00:17:00,
2013-02-18 16:27:00,48.4,39.0,30.11,WSW,245,15.0,18.0,70,0.00,,,0.00,44.0,meteohub,2013-02-19 00:27:00,
2013-02-18 16:32:00,47.8,38.8,30.11,WNW,290,8.0,21.0,71,0.00,,,0.00,67.0,meteohub,2013-02-19 00:32:00,
2013-02-18 16:42:00,47.3,39.0,30.11,WNW,287,7.0,22.0,73,0.00,,,0.00,28.0,meteohub,2013-02-19 00:42:00,
2013-02-18 16:47:00,47.1,39.2,30.11,WNW,286,6.0,22.0,74,0.00,,,0.00,37.0,meteohub,2013-02-19 00:47:00,
2013-02-18 16:57:00,46.9,38.7,30.11,West,263,11.0,18.0,73,0.00,,,0.00,18.0,meteohub,2013-02-19 00:57:00,
2013-02-18 17:02:00,46.9,39.0,30.11,West,267,7.0,17.0,74,0.00,,,0.00,19.0,meteohub,2013-02-19 01:02:00,
2013-02-18 17:12:00,46.9,39.0,30.11,SW,220,6.0,17.0,74,0.00,,,0.00,25.0,meteohub,2013-02-19 01:12:00,
2013-02-18 17:17:00,46.8,38.8,30.11,SW,229,14.0,16.0,74,0.00,,,0.00,26.0,meteohub,2013-02-19 01:17:00,
2013-02-18 17:22:00,46.8,38.8,30.10,West,279,3.0,16.0,74,0.00,,,0.00,23.0,meteohub,2013-02-19 01:22:00,
2013-02-18 17:27:00,46.8,38.8,30.10,West,264,8.0,15.0,74,0.00,,,0.00,16.0,meteohub,2013-02-19 01:27:00,
2013-02-18 17:32:00,46.8,38.5,30.10,WNW,288,5.0,15.0,73,0.00,,,0.00,7.0,meteohub,2013-02-19 01:32:00,
2013-02-18 17:42:00,46.9,39.0,30.11,West,262,9.0,14.0,74,0.00,,,0.00,0.0,meteohub,2013-02-19 01:42:00,
2013-02-18 17:47:00,46.9,39.0,30.11,WSW,249,7.0,13.0,74,0.00,,,0.00,0.0,meteohub,2013-02-19 01:47:00,
2013-02-18 17:52:00,46.8,39.6,30.11,West,263,7.0,15.0,76,0.00,,,0.00,0.0,meteohub,2013-02-19 01:52:00,
2013-02-18 17:57:00,46.6,39.0,30.11,WNW,284,6.0,15.0,75,0.00,,,0.00,0.0,meteohub,2013-02-19 01:57:00,
2013-02-18 18:02:00,46.6,38.7,30.11,West,268,7.0,17.0,74,0.00,,,0.00,0.0,meteohub,2013-02-19 02:02:00,
2013-02-18 18:07:00,46.2,38.5,30.10,WNW,286,8.0,17.0,74,0.00,,,0.00,0.0,meteohub,2013-02-19 02:07:00,
2013-02-18 18:12:00,46.2,38.1,30.10,NNW,327,8.0,17.0,73,0.00,,,0.00,0.0,meteohub,2013-02-19 02:12:00,
2013-02-18 18:22:00,46.0,38.3,30.10,West,274,8.0,20.0,74,0.00,,,0.00,0.0,meteohub,2013-02-19 02:22:00,
2013-02-18 18:32:00,46.0,38.3,30.11,West,266,6.0,17.0,74,0.00,,,0.00,0.0,meteohub,2013-02-19 02:32:00,
2013-02-18 18:42:00,46.0,38.3,30.10,West,263,10.0,17.0,74,0.00,,,0.00,0.0,meteohub,2013-02-19 02:42:00,
2013-02-18 18:52:00,46.0,38.5,30.11,West,260,8.0,17.0,75,0.00,,,0.00,0.0,meteohub,2013-02-19 02:52:00,
2013-02-18 18:58:00,45.9,38.7,30.10,SW,218,6.0,15.0,76,0.00,,,0.00,0.0,meteohub,2013-02-19 02:58:00,
2013-02-18 19:07:00,45.9,39.0,30.10,WNW,295,6.0,15.0,77,0.00,,,0.00,0.0,meteohub,2013-02-19 03:07:00,
2013-02-18 19:12:00,45.9,39.0,30.10,WSW,242,5.0,15.0,77,0.00,,,0.00,0.0,meteohub,2013-02-19 03:12:00,
2013-02-18 19:17:00,45.9,39.0,30.11,WSW,240,9.0,15.0,77,0.00,,,0.00,0.0,meteohub,2013-02-19 03:17:00,
2013-02-18 19:22:00,45.9,39.0,30.10,WSW,248,8.0,13.0,77,0.00,,,0.00,0.0,meteohub,2013-02-19 03:22:00,
2013-02-18 19:27:00,46.0,39.6,30.11,West,263,7.0,13.0,78,0.00,,,0.00,0.0,meteohub,2013-02-19 03:27:00,
2013-02-18 19:42:00,46.0,39.2,30.11,WSW,241,6.0,20.0,77,0.00,,,0.00,0.0,meteohub,2013-02-19 03:42:00,
2013-02-18 19:48:00,46.0,39.2,30.11,West,269,5.0,13.0,77,0.00,,,0.00,0.0,meteohub,2013-02-19 03:48:00,
2013-02-18 20:37:00,46.0,39.9,30.10,West,261,12.0,15.0,79,0.00,,,0.00,0.0,meteohub,2013-02-19 04:37:00,
2013-02-18 20:42:00,46.0,39.6,30.10,WSW,241,11.0,15.0,78,0.00,,,0.00,0.0,meteohub,2013-02-19 04:42:00,
2013-02-18 20:52:00,45.9,39.0,30.11,WSW,244,11.0,16.0,77,0.00,,,0.00,0.0,meteohub,2013-02-19 04:52:00,
2013-02-18 20:57:00,45.9,39.4,30.11,WNW,296,5.0,16.0,78,0.00,,,0.00,0.0,meteohub,2013-02-19 04:57:00,
2013-02-18 21:02:00,45.9,39.4,30.11,West,271,7.0,16.0,78,0.00,,,0.00,0.0,meteohub,2013-02-19 05:02:00,
2013-02-18 21:33:00,45.7,38.5,30.12,WNW,290,6.0,14.0,76,0.00,,,0.00,0.0,meteohub,2013-02-19 05:33:00,
2013-02-18 21:52:00,45.5,37.8,30.13,WSW,254,13.0,14.0,74,0.00,,,0.00,0.0,meteohub,2013-02-19 05:52:00,
2013-02-18 21:57:00,45.5,38.1,30.13,WSW,243,9.0,14.0,75,0.00,,,0.00,0.0,meteohub,2013-02-19 05:57:00,
2013-02-18 22:02:00,45.3,37.6,30.12,SSW,210,6.0,14.0,74,0.00,,,0.00,0.0,meteohub,2013-02-19 06:02:00,
2013-02-18 22:08:00,45.3,37.2,30.12,West,264,8.0,14.0,73,0.00,,,0.00,0.0,meteohub,2013-02-19 06:08:00,
2013-02-18 22:12:00,45.3,36.9,30.12,West,268,6.0,14.0,72,0.00,,,0.00,0.0,meteohub,2013-02-19 06:12:00,
2013-02-18 22:28:00,45.3,36.1,30.12,West,267,6.0,15.0,70,0.00,,,0.00,0.0,meteohub,2013-02-19 06:28:00,
2013-02-18 22:37:00,45.1,36.3,30.12,WSW,238,5.0,12.0,71,0.00,,,0.00,0.0,meteohub,2013-02-19 06:37:00,
2013-02-18 22:43:00,45.0,36.1,30.11,West,271,4.0,13.0,71,0.00,,,0.00,0.0,meteohub,2013-02-19 06:43:00,
2013-02-18 23:23:00,43.9,35.8,30.11,WSW,242,6.0,13.0,73,0.00,,,0.00,0.0,meteohub,2013-02-19 07:23:00,
2013-02-18 23:32:00,43.9,35.8,30.11,West,271,7.0,14.0,73,0.00,,,0.00,0.0,meteohub,2013-02-19 07:32:00,
2013-02-18 23:57:00,44.2,36.1,30.11,WSW,248,5.0,12.0,73,0.00,,,0.00,0.0,meteohub,2013-02-19 07:57:00,